Regional Weather Roundup
Issued by NWS

Home | Current Version | Previous Version | Graphics & Text | Print | Product List | Glossary Off
Versions: 1 2 3 4 5 6 7 8 9 10 11 12 13 14 15 16 17 18 19 20 21 22 23 24 25 26 27 28 29 30 31 32 33 34 35 36 37 38 39 40 41 42 43 44 45 46 47 48 49 50

000
ASUS43 KTOP 171508
RWRKS

WEATHER ROUNDUP FOR KANSAS
NATIONAL WEATHER SERVICE GOODLAND KS
900 AM CST SAT FEB 17 2018

NOTE:  "FAIR" INDICATES FEW OR NO CLOUDS BELOW 12,000 FEET WITH NO
SIGNIFICANT WEATHER AND/OR OBSTRUCTIONS TO VISIBILITY.

KSZ001>006-013>018-027>032-041>047-171600-
NORTHWEST KANSAS

CITY           SKY/WX    TMP DP  RH WIND       PRES   REMARKS
GOODLAND       SUNNY     34  22  61 W6        30.06R
HAYS           SUNNY     35  20  54 NW13      30.04R WCI  26
HILL CITY      SUNNY     36  23  59 NW13G20   30.04R WCI  27
RUSSELL        SUNNY     38  22  52 NW15      30.01R WCI  29
$$

KSZ061>065-074>080-084>089-171600-
SOUTHWEST KANSAS

CITY           SKY/WX    TMP DP  RH WIND       PRES   REMARKS
DODGE CITY     SUNNY     40  19  43 N13       30.06R WCI  32
ELKHART        SUNNY     40  24  53 N9        30.10R
GARDEN CITY    SUNNY     36  19  50 N13       30.07R WCI  27
GREAT BEND     SUNNY     39  19  44 NW20      30.02R WCI  29
LIBERAL        SUNNY     39  21  48 N16       30.08R WCI  30
PRATT          CLOUDY    39  20  46 N22       30.02R WCI  28
$$

KSZ066>073-081>083-090>101-171600-
SOUTHEAST KANSAS

CITY           SKY/WX    TMP DP  RH WIND       PRES   REMARKS
CHANUTE        CLOUDY    38  36  92 SW13      30.06R WCI  30
COFFEYVILLE    CLOUDY    38  37  97 SW10      30.05S FOG     WCI  31
HUTCHINSON     CLOUDY    36  25  64 W10       30.01R WCI  28
MEDICINE LODGE   N/A     36  29  75 NW5       30.03R
NEWTON         MOSUNNY   37  29  72 W14       30.02R WCI  28
PARSONS        CLOUDY    37  37 100 SW7       30.06R
WICHITA INTL   MOSUNNY   37  32  82 SW8       30.03R
WICHITA JABRA  MOSUNNY   37  33  85 W9        30.02R
WICHITA MCCONL MOSUNNY   35  32  89 W8        30.03R
WINFIELD       SUNNY     37  36  96 SW9       30.05R
$$

KSZ007>012-019>026-033>040-048>060-102>105-171600-
NORTHEAST KANSAS

CITY           SKY/WX    TMP DP  RH WIND       PRES   REMARKS
CONCORDIA      SUNNY     32  19  58 W15       29.97R WCI  22
EMPORIA        MOSUNNY   38  31  76 W16G23    30.01R WCI  29
LAWRENCE       CLOUDY    36  34  92 S7        30.01R
MANHATTAN      SUNNY     37  22  54 SW10      30.01R WCI  30
MARYSVILLE     SUNNY     34  21  60 W8        29.96S
OLATHE IND     CLOUDY    34  34 100 S10       30.01R WCI  26
OLATHE EXE     CLOUDY    33  33 100 SW9       30.00R
SALINA           N/A     35  22  58 MISG      30.00S
TOPEKA BILLARD MOSUNNY   38  32  79 SW12      30.01R WCI  30
TOPEKA FORBES  SUNNY     37  33  85 SW14      30.00R WCI  28
$$




USA.gov is the U.S. government's official web portal to all federal, state and local government web resources and services.